QPF
0.00 0.00 0.01 0.00 0.01 0.01 0.00 0.00 0.00 0.00 0.00 0.00 0.01 0.01 0.02 0.03 0.05 0.08 0.06 0.03 0.02 0.02 0.02 0.02 0.03 0.05 0.10 0.10 0.13 0.14 0.14 0.14 0.13 0.14 0.17 0.18 0.15 0.10
0.00 0.00 0.00 0.00 0.00 0.00 0.00 0.00 0.00 0.00 0.00 0.00 0.01 0.01 0.01 0.02 0.02 0.05 0.06 0.04 0.02 0.02 0.02 0.02 0.02 0.03 0.07 0.10 0.11 0.12 0.11 0.11 0.11 0.11 0.11 0.11 0.12 0.12
0.00 0.00 0.01 0.00 0.00 0.00 0.00 0.00 0.00 0.00 0.00 0.00 0.00 0.00 0.00 0.01 0.02 0.03 0.04 0.04 0.03 0.03 0.03 0.03 0.03 0.03 0.04 0.09 0.12 0.11 0.12 0.11 0.10 0.09 0.08 0.07 0.06 0.06
0.01 0.01 0.01 0.01 0.00 0.00 0.00 0.00 0.00 0.00 0.00 0.00 0.00 0.00 0.00 0.01 0.03 0.04 0.03 0.04 0.04 0.04 0.04 0.04 0.04 0.04 0.04 0.06 0.12 0.12 0.10 0.10 0.08 0.07 0.07 0.06 0.05 0.05
0.01 0.01 0.01 0.01 0.00 0.00 0.00 0.00 0.00 0.00 0.00 0.00 0.00 0.00 0.00 0.00 0.01 0.03 0.05 0.05 0.05 0.05 0.05 0.05 0.05 0.05 0.06 0.07 0.09 0.12 0.08 0.05 0.05 0.05 0.06 0.06 0.05 0.04
0.00 0.01 0.01 0.00 0.00 0.00 0.00 0.00 0.00 0.00 0.00 0.00 0.00 0.00 0.00 0.00 0.00 0.01 0.02 0.04 0.06 0.05 0.05 0.06 0.07 0.07 0.07 0.09 0.09 0.09 0.07 0.04 0.03 0.02 0.03 0.03 0.03 0.03
0.01 0.01 0.01 0.00 0.00 0.00 0.01 0.01 0.01 0.00 0.00 0.00 0.00 0.00 0.00 0.00 0.00 0.00 0.01 0.02 0.03 0.03 0.04 0.04 0.05 0.05 0.05 0.10 0.11 0.09 0.07 0.05 0.03 0.02 0.02 0.02 0.02 0.02
0.00 0.00 0.00 0.00 0.00 0.01 0.01 0.01 0.00 0.00 0.00 0.00 0.00 0.00 0.00 0.00 0.00 0.01 0.01 0.02 0.02 0.02 0.02 0.04 0.04 0.04 0.04 0.06 0.12 0.09 0.08 0.07 0.05 0.04 0.03 0.03 0.03 0.02
0.00 0.00 0.00 0.01 0.01 0.00 0.01 0.01 0.00 0.00 0.00 0.01 0.00 0.00 0.00 0.00 0.01 0.01 0.01 0.01 0.01 0.02 0.03 0.03 0.04 0.03 0.03 0.04 0.10 0.12 0.09 0.08 0.07 0.06 0.05 0.05 0.05 0.03
0.00 0.00 0.00 0.00 0.00 0.00 0.00 0.00 0.00 0.00 0.00 0.00 0.00 0.00 0.00 0.00 0.01 0.01 0.02 0.02 0.02 0.03 0.03 0.04 0.04 0.05 0.05 0.04 0.06 0.10 0.09 0.08 0.08 0.07 0.06 0.07 0.07 0.06
0.00 0.00 0.00 0.00 0.00 0.00 0.00 0.00 0.00 0.00 0.00 0.00 0.00 0.01 0.01 0.01 0.01 0.01 0.02 0.02 0.01 0.02 0.03 0.03 0.04 0.05 0.07 0.06 0.06 0.08 0.09 0.07 0.07 0.08 0.07 0.06 0.07 0.07
0.00 0.00 0.00 0.00 0.00 0.01 0.01 0.01 0.01 0.01 0.01 0.00 0.00 0.00 0.01 0.01 0.01 0.01 0.02 0.03 0.03 0.02 0.03 0.04 0.04 0.05 0.07 0.07 0.07 0.07 0.09 0.09 0.07 0.07 0.09 0.08 0.07 0.07
0.00 0.00 0.00 0.00 0.01 0.01 0.01 0.01 0.01 0.01 0.01 0.01 0.00 0.00 0.00 0.00 0.01 0.01 0.01 0.02 0.03 0.03 0.04 0.06 0.05 0.05 0.05 0.04 0.05 0.07 0.09 0.09 0.08 0.07 0.07 0.08 0.09 0.07
0.00 0.00 0.00 0.00 0.01 0.01 0.01 0.01 0.01 0.01 0.01 0.01 0.00 0.00 0.00 0.00 0.00 0.00 0.01 0.02 0.03 0.03 0.03 0.05 0.06 0.06 0.06 0.05 0.04 0.05 0.08 0.10 0.10 0.09 0.07 0.09 0.09 0.09
0.00 0.00 0.00 0.00 0.00 0.00 0.00 0.01 0.01 0.01 0.01 0.01 0.00 0.00 0.00 0.01 0.00 0.01 0.01 0.01 0.02 0.03 0.03 0.04 0.05 0.07 0.08 0.07 0.05 0.04 0.06 0.09 0.13 0.14 0.11 0.08 0.07 0.08
0.00 0.00 0.00 0.00 0.00 0.00 0.00 0.01 0.01 0.01 0.01 0.01 0.01 0.01 0.01 0.01 0.01 0.01 0.01 0.01 0.02 0.04 0.05 0.07 0.07 0.08 0.08 0.08 0.07 0.06 0.05 0.06 0.10 0.15 0.17 0.15 0.11 0.08
0.00 0.00 0.00 0.00 0.00 0.00 0.00 0.01 0.01 0.01 0.01 0.01 0.01 0.01 0.02 0.02 0.02 0.02 0.02 0.02 0.02 0.03 0.06 0.08 0.10 0.10 0.10 0.09 0.07 0.07 0.07 0.06 0.07 0.11 0.16 0.19 0.17 0.13
0.00 0.00 0.00 0.00 0.00 0.00 0.01 0.01 0.01 0.02 0.02 0.02 0.02 0.02 0.02 0.02 0.02 0.02 0.03 0.03 0.03 0.04 0.05 0.08 0.09 0.10 0.10 0.09 0.08 0.07 0.07 0.08 0.07 0.08 0.10 0.12 0.14 0.12
0.00 0.00 0.00 0.00 0.01 0.01 0.01 0.01 0.02 0.02 0.02 0.02 0.02 0.03 0.03 0.03 0.03 0.02 0.02 0.04 0.04 0.05 0.05 0.05 0.08 0.09 0.09 0.08 0.07 0.06 0.07 0.07 0.07 0.07 0.07 0.08 0.08 0.08
0.00 0.00 0.00 0.00 0.01 0.01 0.01 0.01 0.02 0.02 0.03 0.03 0.04 0.04 0.04 0.04 0.04 0.03 0.03 0.03 0.05 0.06 0.07 0.08 0.07 0.08 0.08 0.07 0.05 0.06 0.06 0.06 0.06 0.06 0.06 0.06 0.07 0.08
0.00 0.00 0.00 0.01 0.01 0.02 0.02 0.02 0.02 0.02 0.03 0.04 0.05 0.05 0.06 0.06 0.06 0.05 0.04 0.04 0.05 0.06 0.07 0.09 0.09 0.08 0.09 0.09 0.06 0.04 0.04 0.05 0.05 0.05 0.05 0.05 0.05 0.05
0.00 0.01 0.01 0.01 0.01 0.02 0.02 0.02 0.02 0.02 0.02 0.04 0.05 0.06 0.07 0.08 0.08 0.08 0.07 0.06 0.06 0.06 0.06 0.06 0.08 0.09 0.08 0.09 0.08 0.06 0.05 0.05 0.05 0.06 0.06 0.06 0.05 0.05
0.00 0.01 0.01 0.01 0.01 0.02 0.02 0.03 0.03 0.03 0.03 0.03 0.05 0.07 0.08 0.09 0.09 0.09 0.09 0.08 0.07 0.08 0.07 0.06 0.07 0.07 0.07 0.06 0.06 0.06 0.06 0.06 0.05 0.05 0.05 0.05 0.05 0.05
MSLP
1017.80 1017.72 1017.66 1017.62 1017.57 1017.50 1017.40 1017.27 1017.09 1016.89 1016.68 1016.46 1016.27 1016.10 1015.99 1015.93 1015.92 1015.98 1016.08 1016.23 1016.41 1016.61 1016.82 1017.03 1017.23 1017.41 1017.57 1017.73 1017.87 1018.02 1018.18 1018.36 1018.54 1018.74 1018.94 1019.12 1019.28 1019.41
1017.99 1017.91 1017.84 1017.79 1017.75 1017.69 1017.62 1017.53 1017.40 1017.24 1017.06 1016.87 1016.68 1016.50 1016.35 1016.24 1016.17 1016.15 1016.19 1016.27 1016.39 1016.55 1016.73 1016.91 1017.10 1017.29 1017.46 1017.63 1017.79 1017.95 1018.12 1018.29 1018.47 1018.65 1018.82 1018.97 1019.10 1019.19
1018.12 1018.05 1017.98 1017.93 1017.89 1017.85 1017.81 1017.75 1017.66 1017.55 1017.42 1017.26 1017.09 1016.91 1016.75 1016.60 1016.48 1016.40 1016.37 1016.38 1016.44 1016.53 1016.66 1016.81 1016.97 1017.14 1017.30 1017.47 1017.63 1017.80 1017.97 1018.15 1018.33 1018.50 1018.66 1018.80 1018.92 1018.99
1018.25 1018.19 1018.13 1018.09 1018.05 1018.02 1017.99 1017.96 1017.91 1017.84 1017.74 1017.62 1017.47 1017.31 1017.14 1016.98 1016.83 1016.71 1016.62 1016.57 1016.56 1016.59 1016.65 1016.74 1016.86 1016.98 1017.12 1017.27 1017.42 1017.59 1017.76 1017.94 1018.13 1018.31 1018.48 1018.62 1018.74 1018.82
1018.42 1018.37 1018.32 1018.28 1018.25 1018.22 1018.20 1018.18 1018.14 1018.09 1018.02 1017.92 1017.80 1017.66 1017.51 1017.34 1017.19 1017.04 1016.92 1016.82 1016.75 1016.71 1016.71 1016.73 1016.78 1016.85 1016.94 1017.05 1017.18 1017.33 1017.50 1017.68 1017.88 1018.08 1018.26 1018.43 1018.56 1018.65
1018.66 1018.62 1018.58 1018.54 1018.50 1018.47 1018.43 1018.39 1018.35 1018.30 1018.23 1018.15 1018.04 1017.92 1017.79 1017.65 1017.50 1017.35 1017.21 1017.09 1016.98 1016.89 1016.82 1016.77 1016.75 1016.75 1016.78 1016.84 1016.93 1017.06 1017.22 1017.40 1017.61 1017.82 1018.02 1018.21 1018.36 1018.46
1018.98 1018.95 1018.91 1018.86 1018.80 1018.74 1018.67 1018.60 1018.53 1018.45 1018.37 1018.28 1018.18 1018.08 1017.97 1017.85 1017.73 1017.60 1017.47 1017.33 1017.20 1017.07 1016.95 1016.84 1016.75 1016.69 1016.65 1016.66 1016.71 1016.81 1016.95 1017.12 1017.33 1017.55 1017.76 1017.96 1018.12 1018.24
1019.38 1019.34 1019.28 1019.21 1019.13 1019.03 1018.91 1018.79 1018.67 1018.55 1018.43 1018.32 1018.22 1018.12 1018.03 1017.94 1017.85 1017.75 1017.64 1017.52 1017.38 1017.23 1017.07 1016.92 1016.77 1016.65 1016.56 1016.52 1016.53 1016.59 1016.71 1016.87 1017.07 1017.28 1017.49 1017.68 1017.85 1017.96
1019.82 1019.75 1019.67 1019.57 1019.45 1019.31 1019.15 1018.97 1018.79 1018.61 1018.45 1018.30 1018.18 1018.09 1018.01 1017.94 1017.88 1017.81 1017.73 1017.62 1017.49 1017.33 1017.15 1016.96 1016.78 1016.61 1016.48 1016.40 1016.37 1016.41 1016.50 1016.64 1016.82 1017.01 1017.21 1017.39 1017.54 1017.64
1020.25 1020.16 1020.05 1019.93 1019.78 1019.60 1019.39 1019.16 1018.92 1018.69 1018.47 1018.29 1018.14 1018.02 1017.95 1017.89 1017.84 1017.79 1017.73 1017.63 1017.50 1017.33 1017.14 1016.93 1016.72 1016.53 1016.38 1016.27 1016.22 1016.24 1016.31 1016.43 1016.58 1016.75 1016.93 1017.08 1017.21 1017.30
1020.64 1020.53 1020.41 1020.27 1020.10 1019.89 1019.64 1019.37 1019.09 1018.81 1018.55 1018.32 1018.13 1018.00 1017.90 1017.83 1017.78 1017.73 1017.66 1017.56 1017.41 1017.24 1017.03 1016.80 1016.58 1016.37 1016.20 1016.09 1016.03 1016.03 1016.09 1016.19 1016.33 1016.48 1016.63 1016.76 1016.86 1016.94
1020.96 1020.85 1020.73 1020.59 1020.42 1020.20 1019.94 1019.64 1019.33 1019.02 1018.72 1018.45 1018.23 1018.06 1017.92 1017.82 1017.74 1017.65 1017.55 1017.42 1017.25 1017.04 1016.81 1016.56 1016.32 1016.11 1015.93 1015.81 1015.75 1015.75 1015.81 1015.90 1016.02 1016.16 1016.29 1016.41 1016.50 1016.58
1021.21 1021.12 1021.02 1020.89 1020.73 1020.53 1020.27 1019.97 1019.65 1019.31 1018.99 1018.69 1018.43 1018.22 1018.04 1017.89 1017.75 1017.60 1017.44 1017.24 1017.01 1016.76 1016.48 1016.21 1015.95 1015.72 1015.54 1015.42 1015.37 1015.37 1015.43 1015.52 1015.63 1015.76 1015.88 1016.00 1016.10 1016.18
1021.39 1021.33 1021.26 1021.17 1021.04 1020.85 1020.61 1020.33 1020.01 1019.67 1019.34 1019.02 1018.73 1018.47 1018.23 1018.02 1017.80 1017.58 1017.33 1017.05 1016.75 1016.42 1016.09 1015.77 1015.48 1015.23 1015.04 1014.92 1014.87 1014.87 1014.92 1015.01 1015.12 1015.25 1015.37 1015.49 1015.60 1015.72
1021.50 1021.47 1021.44 1021.39 1021.29 1021.13 1020.92 1020.65 1020.35 1020.02 1019.69 1019.36 1019.04 1018.75 1018.46 1018.18 1017.89 1017.58 1017.24 1016.87 1016.48 1016.08 1015.68 1015.30 1014.96 1014.69 1014.48 1014.34 1014.27 1014.27 1014.31 1014.39 1014.48 1014.60 1014.72 1014.84 1014.98 1015.13
1021.53 1021.54 1021.55 1021.52 1021.45 1021.31 1021.12 1020.88 1020.59 1020.28 1019.96 1019.63 1019.30 1018.99 1018.66 1018.33 1017.97 1017.58 1017.16 1016.71 1016.23 1015.75 1015.28 1014.84 1014.46 1014.14 1013.90 1013.73 1013.63 1013.60 1013.61 1013.65 1013.72 1013.81 1013.91 1014.04 1014.19 1014.36
1021.49 1021.52 1021.54 1021.52 1021.46 1021.33 1021.15 1020.92 1020.66 1020.36 1020.06 1019.75 1019.43 1019.10 1018.77 1018.40 1018.00 1017.56 1017.07 1016.55 1016.01 1015.46 1014.93 1014.44 1014.01 1013.65 1013.36 1013.15 1013.00 1012.91 1012.87 1012.86 1012.87 1012.91 1012.97 1013.07 1013.22 1013.41
1021.36 1021.39 1021.39 1021.36 1021.28 1021.14 1020.96 1020.73 1020.48 1020.21 1019.93 1019.64 1019.35 1019.04 1018.71 1018.35 1017.93 1017.47 1016.95 1016.40 1015.81 1015.23 1014.66 1014.13 1013.65 1013.24 1012.91 1012.64 1012.43 1012.27 1012.14 1012.05 1011.98 1011.94 1011.94 1011.99 1012.10 1012.28
1021.13 1021.13 1021.09 1021.02 1020.90 1020.74 1020.53 1020.30 1020.05 1019.80 1019.55 1019.30 1019.04 1018.78 1018.48 1018.13 1017.74 1017.28 1016.77 1016.20 1015.61 1015.01 1014.42 1013.87 1013.37 1012.92 1012.54 1012.21 1011.93 1011.69 1011.47 1011.28 1011.11 1010.98 1010.89 1010.86 1010.92 1011.06
1020.78 1020.73 1020.64 1020.51 1020.34 1020.13 1019.89 1019.64 1019.40 1019.16 1018.94 1018.74 1018.53 1018.31 1018.05 1017.75 1017.39 1016.97 1016.48 1015.93 1015.36 1014.77 1014.19 1013.63 1013.12 1012.65 1012.23 1011.86 1011.51 1011.19 1010.88 1010.58 1010.31 1010.07 1009.88 1009.77 1009.76 1009.85
1020.30 1020.19 1020.04 1019.84 1019.61 1019.35 1019.08 1018.82 1018.58 1018.36 1018.17 1018.00 1017.84 1017.67 1017.46 1017.21 1016.89 1016.50 1016.05 1015.54 1015.00 1014.43 1013.87 1013.34 1012.83 1012.36 1011.93 1011.52 1011.12 1010.73 1010.35 1009.97 1009.60 1009.27 1008.99 1008.79 1008.70 1008.74
1019.68 1019.51 1019.30 1019.04 1018.76 1018.46 1018.16 1017.89 1017.64 1017.44 1017.28 1017.15 1017.03 1016.89 1016.73 1016.51 1016.23 1015.88 1015.46 1014.98 1014.47 1013.94 1013.42 1012.91 1012.42 1011.97 1011.54 1011.12 1010.70 1010.28 1009.85 1009.41 1008.98 1008.58 1008.22 1007.96 1007.81 1007.79
1018.92 1018.69 1018.43 1018.13 1017.80 1017.48 1017.17 1016.89 1016.65 1016.47 1016.33 1016.22 1016.12 1016.01 1015.87 1015.67 1015.41 1015.08 1014.68 1014.23 1013.74 1013.25 1012.75 1012.28 1011.83 1011.41 1011.00 1010.60 1010.19 1009.77 1009.32 1008.86 1008.40 1007.97 1007.58 1007.27 1007.08 1007.03
Thickness
5678 5677 5676 5676 5676 5675 5674 5673 5670 5668 5671 5676 5680 5685 5687 5690 5692 5694 5696 5697 5699 5701 5703 5705 5707 5710 5712 5713 5715 5717 5718 5720 5720 5721 5721 5720 5720 5719
5677 5676 5676 5675 5675 5675 5674 5673 5672 5670 5669 5673 5676 5680 5683 5686 5688 5690 5692 5694 5696 5698 5700 5701 5703 5705 5707 5709 5710 5712 5713 5715 5716 5716 5716 5716 5716 5715
5676 5675 5675 5675 5674 5673 5673 5672 5671 5670 5669 5671 5674 5677 5679 5681 5684 5686 5688 5689 5692 5694 5695 5697 5699 5701 5702 5704 5705 5706 5708 5710 5711 5711 5712 5711 5711 5711
5674 5674 5673 5673 5672 5672 5671 5670 5670 5670 5668 5668 5671 5673 5675 5677 5679 5681 5683 5685 5687 5689 5691 5692 5694 5696 5697 5699 5700 5702 5703 5705 5706 5706 5707 5707 5707 5706
5672 5672 5671 5671 5670 5669 5669 5668 5668 5668 5667 5666 5667 5668 5670 5672 5674 5676 5678 5680 5682 5684 5686 5688 5689 5691 5692 5694 5695 5696 5698 5700 5701 5701 5701 5701 5702 5701
5670 5669 5669 5668 5667 5667 5667 5666 5665 5664 5663 5662 5663 5664 5665 5667 5667 5669 5671 5673 5676 5678 5680 5682 5683 5685 5687 5689 5690 5691 5693 5694 5694 5696 5696 5696 5696 5696
5667 5666 5666 5666 5666 5665 5664 5662 5662 5660 5659 5658 5658 5659 5660 5660 5661 5663 5664 5666 5669 5671 5673 5675 5677 5679 5680 5682 5684 5685 5687 5688 5689 5689 5689 5690 5690 5690
5662 5661 5662 5661 5662 5662 5661 5661 5659 5657 5656 5655 5654 5654 5656 5656 5657 5657 5657 5658 5660 5664 5665 5667 5670 5672 5674 5676 5678 5680 5681 5681 5682 5683 5683 5684 5684 5684
5656 5655 5656 5656 5656 5655 5655 5656 5655 5655 5655 5653 5651 5652 5652 5653 5652 5652 5652 5652 5654 5657 5657 5660 5662 5664 5667 5670 5672 5673 5675 5675 5675 5676 5676 5677 5677 5677
5650 5649 5648 5648 5649 5648 5648 5648 5648 5649 5649 5649 5649 5650 5650 5650 5649 5649 5649 5648 5650 5651 5652 5653 5655 5657 5661 5663 5665 5666 5668 5668 5669 5669 5669 5669 5670 5670
5645 5644 5642 5642 5643 5642 5641 5640 5641 5643 5644 5645 5645 5646 5646 5646 5645 5643 5642 5642 5643 5645 5646 5647 5650 5651 5653 5656 5659 5660 5661 5661 5662 5662 5662 5662 5662 5662
5638 5637 5637 5636 5636 5635 5633 5632 5633 5635 5636 5638 5639 5640 5640 5640 5640 5638 5638 5636 5636 5638 5641 5640 5642 5642 5645 5649 5651 5652 5653 5654 5654 5654 5654 5654 5654 5653
5629 5629 5629 5629 5628 5628 5627 5625 5626 5628 5628 5628 5629 5631 5631 5632 5632 5632 5632 5631 5631 5632 5634 5633 5634 5634 5636 5639 5641 5644 5645 5646 5646 5646 5646 5646 5646 5645
5620 5620 5620 5620 5620 5619 5619 5618 5619 5619 5618 5618 5619 5621 5622 5623 5624 5624 5624 5624 5625 5626 5626 5625 5626 5627 5628 5629 5632 5635 5635 5637 5637 5638 5638 5638 5637 5637
5610 5611 5611 5610 5610 5609 5608 5608 5608 5607 5606 5607 5609 5611 5612 5613 5614 5614 5615 5615 5616 5617 5617 5617 5618 5619 5620 5623 5624 5625 5625 5626 5627 5628 5628 5628 5628 5628
5599 5599 5599 5598 5597 5596 5596 5596 5595 5594 5594 5596 5599 5601 5601 5602 5602 5603 5604 5604 5605 5607 5607 5608 5608 5610 5610 5613 5615 5616 5616 5617 5618 5618 5618 5618 5618 5619
5586 5585 5584 5583 5582 5582 5581 5581 5581 5581 5581 5583 5585 5587 5589 5590 5591 5592 5592 5592 5593 5596 5597 5596 5597 5599 5600 5602 5604 5606 5607 5607 5608 5608 5607 5608 5608 5609
5571 5569 5568 5567 5567 5567 5566 5566 5566 5567 5567 5568 5571 5574 5575 5577 5579 5579 5579 5580 5582 5584 5585 5585 5584 5585 5586 5589 5593 5596 5596 5597 5597 5597 5597 5598 5598 5599
5554 5553 5552 5552 5552 5551 5551 5551 5551 5552 5552 5553 5556 5558 5561 5563 5565 5566 5567 5567 5569 5571 5572 5572 5572 5574 5576 5582 5583 5584 5585 5585 5585 5585 5586 5588 5590 5590
5538 5537 5536 5537 5536 5536 5536 5536 5537 5537 5536 5537 5539 5542 5544 5547 5550 5553 5554 5555 5557 5558 5558 5559 5561 5563 5567 5571 5572 5571 5572 5573 5574 5575 5575 5575 5576 5577
5523 5522 5521 5521 5522 5521 5521 5521 5521 5521 5521 5521 5524 5526 5528 5531 5535 5538 5540 5542 5543 5544 5546 5549 5551 5551 5552 5553 5555 5558 5560 5562 5564 5565 5565 5564 5564 5565
5509 5507 5507 5506 5506 5506 5506 5506 5506 5506 5507 5507 5509 5511 5513 5516 5519 5523 5526 5528 5530 5532 5534 5535 5535 5535 5537 5542 5546 5547 5547 5548 5550 5552 5554 5557 5557 5559
5495 5493 5492 5492 5491 5491 5491 5491 5492 5493 5493 5494 5495 5497 5499 5502 5505 5508 5512 5514 5516 5517 5518 5520 5521 5522 5525 5529 5532 5534 5535 5536 5538 5539 5542 5545 5548 5552